Location: Auckland
(36.8670°S, 174.7670°E)
Time: 12:57:59
(UTC+12:00)

NOSS 2-1 (E) - Pass Details

Date: 28 April 2019
Orbit: 471 x 1733 km, 63.3° (Epoch: 21 May)

Event Time Altitude Azimuth Distance (km) Brightness Sun altitude
Rises 21:05:37 0° 212° (SSW) 4,703 8.6 -41.5°
Reaches altitude 10° 21:10:47 10° 190° (S) 3,466 7.5 -42.5°
Enters shadow 21:12:46 13° 177° (S) 3,109 7.2 -42.9°
